[Iaude] MPEC G188: 2024 GD5 [a=0.90,e=0.20,i=1.1,H=27.0]

mpec at cfa.harvard.edu mpec at cfa.harvard.edu
Sat Apr 13 10:53:21 EDT 2024


M.P.E.C. 2024-G188                               Issued 2024 April 13, 14:51 UT

     The Minor Planet Electronic Circulars contain information on unusual
         minor planets, routine data on comets and natural satellites,
         and occasional editorial announcements.  They are published
    on behalf of Division F of the International Astronomical Union by the
          Minor Planet Center, Smithsonian Astrophysical Observatory,
                          Cambridge, MA 02138, U.S.A.
			  
             Prepared using the Tamkin Foundation Computer Network

                              MPC at CFA.HARVARD.EDU
            URL https://www.minorplanetcenter.net/    ISSN 1523-6714

                                    2024 GD5                                    


Observations:
     K24G05D 1C2024 04 04.31637 13 30 44.12 -07 42 13.4          21.5 GVEG188G96
     K24G05D 1C2024 04 04.32192 13 30 41.86 -07 41 54.1          21.5 GVEG188G96
     K24G05D 1C2024 04 04.32748 13 30 39.60 -07 41 34.7          21.8 GVEG188G96
     K24G05D 1C2024 04 04.33303 13 30 37.34 -07 41 16.0          21.5 GVEG188G96
     K24G05D*1C2024 04 12.30594112 24 57.571+03 11 38.87         21.23GVEG188G96
     K24G05D 1C2024 04 12.31110012 24 53.773+03 12 12.42         20.87GVEG188G96
     K24G05D 1C2024 04 12.31626012 24 50.022+03 12 46.26         20.94GVEG188G96
     K24G05D 1C2024 04 12.32142012 24 46.274+03 13 19.16         20.55GVEG188G96
     K24G05D  C2024 04 12.35711312 24 19.843+03 17 05.96         20.7 GVEG188H01
     K24G05D  C2024 04 12.36110012 24 16.985+03 17 31.78         20.7 GVEG188H01
     K24G05D  C2024 04 12.37091312 24 09.937+03 18 35.65         20.6 GVEG188H01
     K24G05D  C2024 04 12.37857712 24 04.466+03 19 25.36         21.0 GVEG188H01
     K24G05D KC2024 04 12.37857712 24 04.882+03 19 30.40         20.76GVEG188I52
     K24G05D KC2024 04 12.38055812 24 03.452+03 19 43.54         20.99GVEG188I52
     K24G05D KC2024 04 12.38254212 24 02.027+03 19 56.50         20.88GVEG188I52
     K24G05D KC2024 04 12.38453412 24 00.601+03 20 09.13         20.82GVEG188I52
     K24G05D KB2024 04 12.87184812 18 47.28 +04 13 24.8          20.6 GXEG188I93
     K24G05D KB2024 04 12.87882712 18 42.14 +04 14 12.7          20.1 GXEG188I93
     K24G05D KB2024 04 12.88580112 18 36.93 +04 14 59.4          20.8 GXEG188I93
     K24G05D 1C2024 04 12.90535 12 18 20.22 +04 16 54.8          21.3 VXEG188033
     K24G05D 1C2024 04 12.90657 12 18 19.33 +04 17 02.7          21.4 VXEG188033
     K24G05D 1C2024 04 12.90778 12 18 18.37 +04 17 10.9          21.2 VXEG188033
     K24G05D KC2024 04 13.15031412 15 33.89 +04 45 08.2          21.0 GVEG188H21
     K24G05D KC2024 04 13.15245812 15 32.25 +04 45 22.5          20.9 GVEG188H21
     K24G05D KC2024 04 13.15804712 15 27.98 +04 46 00.8          20.7 GVEG188H21
     K24G05D KC2024 04 13.17613312 15 18.889+04 48 25.16         20.45GVEG188I52
     K24G05D KC2024 04 13.17737912 15 17.978+04 48 33.66         20.87GVEG188I52
     K24G05D KC2024 04 13.17863212 15 16.996+04 48 42.34         21.15GVEG188I52
     K24G05D KC2024 04 13.17988912 15 16.049+04 48 51.73         20.50GVEG188I52

Observer details:
033 Karl Schwarzschild Observatory, Tautenburg.  Observers S. Melnikov, C.
    Hogner, F. Ludwig, M. Hartmann, B. Stecklum.  Measurer B. Stecklum.
    1.34-m f/3 Schmidt + CCD.
G96 Mt. Lemmon Survey.  Observers G. J. Leonard, H. Groeller.  Measurers B.
    Gray, D. Rankin, F. C. Shelly, T. Beuden, V. F. Carvajal, D. Fay, J. B.
    Fazekas, D. C. Fuls, A. R. Gibbs, A. D. Grauer, H. Groeller, J. K. Hogan,
    R. A. Kowalski, S. M. Larson, G. J. Leonard, R. L. Seaman, K. W.
    Wierzchos.  1.5-m reflector + 10K CCD.
H01 Magdalena Ridge Observatory, Socorro.  Observers W. H. Ryan, E. V. Ryan.
    Measurer W. H. Ryan.  2.4-m f/8.9 Ritchey-Chretien + CCD.
H21 Astronomical Research Observatory, Westfield.  Observer R. Holmes.
    Measurers T. Linder, R. Holmes, L. Horn.  0.76-m f/3.0 astrograph + CCD.
I52 Steward Observatory, Mt. Lemmon Station.  Observers V. F. Carvajal, D.
    Rankin.  Measurers T. Beuden, V. F. Carvajal, D. Fay, J. B. Fazekas, D. C.
    Fuls, A. R. Gibbs, A. D. Grauer, H. Groeller, J. K. Hogan, R. A. Kowalski,
    S. M. Larson, G. J. Leonard, D. Rankin, R. L. Seaman, F. C. Shelly, K. W.
    Wierzchos.  1.0-m prime focus + CCD.
I93 St Pardon de Conques.  Observer F. Losse.  0.40-m f/3.7 reflector + CCD.

Orbital elements:
2024 GD5                                                 Earth MOID = 0.0079 AU
Epoch 2024 Mar. 31.0 TT = JDT 2460400.5                 Veres                   
M 213.40127              (2000.0)            P               Q                  
n   1.14626684     Peri.  158.25633     +0.98015868     +0.19818552             
a   0.9042300      Node   190.31453     -0.18453004     +0.90612296             
e   0.1988395      Incl.    1.08308     -0.07237140     +0.37371605             
P   0.86           H   27.02          G   0.15           U   6                  
Residuals in seconds of arc
240404 G96  0.1-  0.2-    240412 H01  0.1-  0.0     240412 033  0.6+  0.0
240404 G96  0.0   0.0     240412 I52  0.0   0.3-    240412 033  0.4-  0.1+
240404 G96  0.1+  0.3+    240412 H01  0.0   0.0     240413 H21  0.2+  0.5+
240404 G96  0.1+  0.1-    240412 I52  0.1-  0.1-    240413 H21  0.2+  0.1+
240412 G96  0.2+  0.1-    240412 I52  0.2-  0.0     240413 H21  0.1+  0.1+
240412 G96  0.3-  0.0     240412 I52  0.1-  0.3-    240413 I52  0.5-  0.4-
240412 G96  0.1-  0.3+    240412 I93  0.1-  0.4-    240413 I52  0.1+  0.4-
240412 G96  0.1+  0.3-    240412 I93  0.2+  0.3+    240413 I52  0.3-  0.4-
240412 H01  0.0   0.1-    240412 I93  0.5-  0.2-    240413 I52  0.1-  0.4+
240412 H01  0.1+  0.1-    240412 033  0.4+  0.3+

Ephemeris:
2024 GD5                 a,e,i = 0.90, 0.20, 1                   q = 0.7244
Date    TT    R. A. (2000) Decl.     Delta      r    Elong.  Phase     V
2024 03 14    14 25 02.6 -16 35 12   0.1187  1.0803   134.2    41.3    24.2
...
2024 03 29    13 59 16.1 -12 15 47   0.07302 1.0657   156.4    22.0    22.5
...
2024 04 06    13 20 07.1 -05 56 22   0.05290 1.0534   175.0     4.7    21.2
...
2024 04 12    12 28 19.5 +02 40 25   0.04169 1.0422   162.4    16.9    21.1
2024 04 13    12 17 15.0 +04 30 06   0.04029 1.0402   158.2    21.0    21.2
2024 04 14    12 05 25.6 +06 25 48   0.03905 1.0381   153.7    25.3    21.2
...
2024 04 20    10 40 14.0 +18 55 28   0.03544 1.0248   123.8    54.5    21.8
...
2024 04 28    08 35 20.8 +30 27 41   0.04066 1.0045    85.7    92.0    23.3
...
2024 05 13    06 08 33.1 +33 11 34   0.06755 0.9600    40.4   137.0    27.5

M. P. C. Staff               (C) Copyright 2024 MPC           M.P.E.C. 2024-G188





More information about the Iaude mailing list